Terminal Aerodrome Forecast
Issued by NWS

Home | Current Version | Previous Version | Graphics & Text | Print | Product List | Glossary On
Versions: 1 2 3 4 5 6 7 8 9 10 11 12 13 14
000
FTUS43 KICT 181400 AAA
TAFHUT
TAF AMD
KHUT 181440Z 1815/1912 16015KT P6SM SCT010 BKN020
     FM181600 09008KT P6SM SCT010 BKN025
     FM181800 11009KT P6SM SCT020 BKN035
     FM190700 15007KT P6SM BKN013=

USA.gov is the U.S. government's official web portal to all federal, state and local government web resources and services.